Weather History for Albion, NE

Change the Weather History Date:

Saturday, December 7, 2013

  Actual Average (KOFK) Record (KOFK)
Temperature  
Mean Temperature 0 °F 26 °F  
Max Temperature 8 °F 36 °F 69 °F (1984)
Min Temperature -8 °F 16 °F -13 °F (1908)
Degree Days  
Heating Degree Days 65 39  
Month to date heating degree days 266  
Since 1 July heating degree days 1711  
Cooling Degree Days 0 0  
Month to date cooling degree days 0  
Year to date cooling degree days 915  
Moisture  
Dew Point -8 °F    
Average Humidity 66    
Maximum Humidity 79    
Minimum Humidity 51    
Precipitation  
Precipitation 0.00 in 0.03 in 1.07 in (1926)
Month to date precipitation 0.21  
Year to date precipitation 26.87  
Snow  
Snow 0.00 in 0.20 in - ()
Month to date snowfall 1.4  
Since 1 July snowfall 6.3  
Snow Depth -    
Sea Level Pressure  
Sea Level Pressure 30.52 in    
Wind  
Wind Speed 5 mph (ESE)    
Max Wind Speed 14 mph    
Max Gust Speed 18 mph    
Visibility 9 miles    
Events Snow    
T = Trace of Precipitation, MM = Missing Value Source: NWS Daily Summary

Daily Weather History Graph

Daily Weather History Graph

Search for Another Location

Airport:

Trip Planner

Search our weather history database for the weather conditions in past years. The results will help you decide how hot, cold, wet, or windy it might be!

Date:

Astronomy

Dec. 07, 2013 Rise Set
Actual Time 7:46 AM CST 5:01 PM CST
Civil Twilight 7:14 AM CST 5:32 PM CST
Nautical Twilight 6:39 AM CST 6:07 PM CST
Astronomical Twilight 6:06 AM CST 6:41 PM CST
Moon 11:29 AM CST (12/7) 10:48 PM CST (12/7)
Length of Visible Light 10h 18m
Length of Day
9h 15m
Waxing Crescent, 29% of the Moon is Illuminated
Dec 7
Waxing Crescent
Dec 9
First Quarter
Dec 17
Full
Dec 25
Last Quarter
Jan 1
New

Hourly Weather History & Observations

Time (CST) Temp. Windchill Dew Point Humidity Pressure Visibility Wind Dir Wind Speed Gust Speed Precip Events Conditions
12:15 AM -5.3 °F - -12.3 °F 72% 30.64 in 10.0 mi Calm Calm - N/A   Clear
12:35 AM -5.8 °F -18.4 °F -12.6 °F 72% 30.64 in 10.0 mi NW 5.8 mph - N/A   Scattered Clouds
12:55 AM -6.0 °F -18.6 °F -12.8 °F 72% 30.64 in 10.0 mi NNW 5.8 mph - N/A   Scattered Clouds
1:15 AM -6.2 °F -20.4 °F -12.5 °F 74% 30.63 in 10.0 mi NNW 6.9 mph - N/A   Clear
1:35 AM -5.8 °F -18.4 °F -12.5 °F 73% 30.63 in 10.0 mi NW 5.8 mph - N/A   Clear
1:55 AM -6.2 °F -18.9 °F -13.0 °F 72% 30.63 in 10.0 mi NNW 5.8 mph - N/A   Clear
2:15 AM -6.7 °F -22.3 °F -13.0 °F 74% 30.63 in 10.0 mi NNW 8.1 mph - N/A   Clear
2:35 AM -6.9 °F -19.7 °F -13.2 °F 74% 30.63 in 10.0 mi NW 5.8 mph - N/A   Clear
2:55 AM -7.8 °F -24.8 °F -14.1 °F 74% 30.63 in 10.0 mi NW 9.2 mph - N/A   Clear
3:15 AM -7.8 °F - -13.9 °F 75% 30.64 in 10.0 mi Calm Calm - N/A   Clear
3:35 AM -7.8 °F - -14.1 °F 74% 30.64 in 10.0 mi Calm Calm - N/A   Clear
3:55 AM -7.6 °F - -14.1 °F 73% 30.63 in 10.0 mi Calm Calm - N/A   Clear
4:15 AM -7.8 °F -16.7 °F -14.1 °F 74% 30.62 in 10.0 mi NNW 3.5 mph - N/A   Clear
4:35 AM -7.6 °F - -14.1 °F 73% 30.62 in 10.0 mi Calm Calm - N/A   Clear
4:55 AM -7.6 °F - -14.1 °F 73% 30.61 in 10.0 mi Calm Calm - N/A   Clear
5:15 AM -8.1 °F - -14.3 °F 75% 30.61 in 10.0 mi Calm Calm - N/A   Clear
5:35 AM -8.1 °F -17.1 °F -14.4 °F 74% 30.61 in 10.0 mi NW 3.5 mph - N/A   Clear
5:55 AM -8.5 °F -17.6 °F -14.4 °F 75% 30.62 in 10.0 mi NNW 3.5 mph - N/A   Clear
6:15 AM -8.1 °F - -14.1 °F 75% 30.63 in 10.0 mi Calm Calm - N/A   Clear
6:35 AM -7.6 °F -16.5 °F -13.9 °F 74% 30.63 in 10.0 mi North 3.5 mph - N/A   Clear
6:55 AM -7.2 °F -16.1 °F -13.9 °F 73% 30.61 in 10.0 mi NNW 3.5 mph - N/A   Clear
7:15 AM -7.2 °F - -13.5 °F 74% 30.64 in 10.0 mi Calm Calm - N/A   Clear
7:35 AM -7.2 °F - -13.5 °F 74% 30.64 in 10.0 mi Calm Calm - N/A   Clear
7:55 AM -6.9 °F - -13.2 °F 74% 30.64 in 10.0 mi Calm Calm - N/A   Clear
8:15 AM -6.3 °F - -12.6 °F 74% 30.64 in 10.0 mi Calm Calm - N/A   Clear
8:35 AM -5.8 °F - -12.3 °F 74% 30.64 in 10.0 mi Calm Calm - N/A   Clear
8:55 AM -4.9 °F - -11.2 °F 74% 30.64 in 10.0 mi Calm Calm - N/A   Clear
9:15 AM -3.5 °F - -9.8 °F 74% 30.64 in 10.0 mi Calm Calm - N/A   Clear
9:35 AM -2.6 °F -10.8 °F -9.2 °F 73% 30.64 in 10.0 mi East 3.5 mph - N/A   Clear
9:55 AM -1.8 °F -9.9 °F -8.1 °F 75% 30.63 in 10.0 mi ESE 3.5 mph - N/A   Clear
10:15 AM -0.8 °F -12.5 °F -7.1 °F 75% 30.63 in 10.0 mi SE 5.8 mph - N/A   Clear
10:35 AM 0.3 °F -11.2 °F -6.2 °F 74% 30.63 in 10.0 mi SSE 5.8 mph - N/A   Clear
10:55 AM 1.2 °F -10.1 °F -6.0 °F 72% 30.63 in 10.0 mi SSE 5.8 mph - N/A   Clear
11:15 AM 1.4 °F -11.3 °F -6.7 °F 69% 30.63 in 10.0 mi South 6.9 mph - N/A   Clear
11:35 AM 2.7 °F -12.0 °F -5.6 °F 68% 30.61 in 10.0 mi SSE 9.2 mph - N/A   Clear
11:55 AM 3.6 °F -9.8 °F -5.8 °F 65% 30.59 in 10.0 mi SSE 8.1 mph - N/A   Clear
12:15 PM 4.6 °F -8.5 °F -5.4 °F 63% 30.57 in 10.0 mi SE 8.1 mph - N/A   Scattered Clouds
12:35 PM 5.4 °F -6.5 °F -5.6 °F 61% 30.56 in 10.0 mi SE 6.9 mph - N/A   Clear
12:55 PM 6.6 °F -5.0 °F -5.3 °F 58% 30.55 in 10.0 mi SSE 6.9 mph - N/A   Clear
1:15 PM 7.5 °F -2.6 °F -5.1 °F 56% 30.53 in 10.0 mi SSE 5.8 mph - N/A   Clear
1:35 PM 7.7 °F -4.8 °F -6.2 °F 53% 30.51 in 10.0 mi SSE 8.1 mph - N/A   Clear
1:55 PM 8.2 °F -3.0 °F -6.2 °F 52% 30.50 in 10.0 mi SE 6.9 mph - N/A   Scattered Clouds
2:15 PM 8.6 °F 0.1 °F -6.2 °F 51% 30.49 in 10.0 mi SE 4.6 mph - N/A   Mostly Cloudy
2:35 PM 8.8 °F -2.4 °F -6.0 °F 51% 30.48 in 10.0 mi SE 6.9 mph - N/A   Overcast
2:55 PM 8.6 °F -2.6 °F -6.0 °F 52% 30.46 in 10.0 mi SE 6.9 mph - N/A   Overcast
3:15 PM 8.4 °F -1.6 °F -5.8 °F 52% 30.45 in 10.0 mi ESE 5.8 mph - N/A   Overcast
3:35 PM 8.4 °F -1.6 °F -5.8 °F 52% 30.44 in 10.0 mi ESE 5.8 mph - N/A   Overcast
3:55 PM 8.6 °F -1.3 °F -6.2 °F 51% 30.42 in 10.0 mi ESE 5.8 mph - N/A   Overcast
4:15 PM 8.6 °F -3.7 °F -5.8 °F 52% 30.42 in 10.0 mi ESE 8.1 mph - N/A   Overcast
4:35 PM 8.4 °F -2.8 °F -6.2 °F 52% 30.40 in 10.0 mi East 6.9 mph - N/A   Overcast
4:55 PM 8.4 °F -3.9 °F -5.8 °F 52% 30.40 in 10.0 mi ESE 8.1 mph - N/A   Overcast
5:15 PM 8.2 °F -4.1 °F -5.3 °F 54% 30.40 in 10.0 mi ESE 8.1 mph - N/A   Overcast
5:35 PM 8.1 °F -3.2 °F -3.8 °F 58% 30.40 in 7.0 mi ESE 6.9 mph - N/A   Overcast
5:55 PM 8.4 °F -3.9 °F -4.2 °F 57% 30.40 in 10.0 mi ESE 8.1 mph - N/A   Mostly Cloudy
6:15 PM 8.1 °F -3.2 °F -4.4 °F 57% 30.40 in 10.0 mi ESE 6.9 mph - N/A   Mostly Cloudy
6:35 PM 8.2 °F -6.0 °F -4.7 °F 56% 30.41 in 10.0 mi SE 10.4 mph - N/A   Overcast
6:55 PM 8.2 °F -6.0 °F -5.1 °F 55% 30.41 in 10.0 mi SE 10.4 mph - N/A   Overcast
7:15 PM 8.2 °F -5.1 °F -5.3 °F 54% 30.41 in 10.0 mi SE 9.2 mph - N/A   Overcast
7:35 PM 8.2 °F -7.5 °F -5.8 °F 53% 30.40 in 10.0 mi ESE 12.7 mph - N/A   Overcast
7:55 PM 8.2 °F -5.1 °F -5.4 °F 54% 30.40 in 10.0 mi ESE 9.2 mph - N/A   Overcast
8:15 PM 8.2 °F -7.5 °F -5.6 °F 53% 30.39 in 10.0 mi ESE 12.7 mph - N/A   Overcast
8:35 PM 8.2 °F -7.5 °F -5.3 °F 54% 30.39 in 10.0 mi ESE 12.7 mph - N/A   Overcast
8:55 PM 8.2 °F -8.2 °F -4.0 °F 58% 30.38 in 7.0 mi SE 13.8 mph - N/A   Overcast
9:15 PM 7.7 °F -7.4 °F -1.3 °F 67% 30.38 in 4.0 mi ESE 11.5 mph 16.1 mph N/A Snow Light Snow
9:35 PM 7.5 °F -8.4 °F -0.6 °F 70% 30.37 in 4.0 mi SE 12.7 mph 17.3 mph N/A Snow Light Snow
9:55 PM 7.3 °F -8.6 °F -0.0 °F 72% 30.36 in 3.0 mi ESE 12.7 mph - N/A Snow Light Snow
10:15 PM 6.8 °F -8.6 °F 0.3 °F 75% 30.35 in 3.0 mi ESE 11.5 mph - N/A Snow Light Snow
10:35 PM 6.6 °F -9.5 °F 0.5 °F 76% 30.34 in 3.0 mi ESE 12.7 mph - N/A Snow Light Snow
10:55 PM 6.4 °F -9.8 °F 0.5 °F 77% 30.32 in 5.0 mi ESE 12.7 mph - N/A Snow Light Snow
11:15 PM 6.4 °F -10.5 °F 0.5 °F 77% 30.31 in 4.0 mi ESE 13.8 mph 18.4 mph N/A Snow Light Snow
11:35 PM 6.4 °F -9.0 °F 0.9 °F 78% 30.30 in 4.0 mi ESE 11.5 mph - N/A Snow Light Snow
11:55 PM 6.6 °F -8.0 °F 1.2 °F 79% 30.29 in 4.0 mi ESE 10.4 mph - N/A Snow Light Snow